Albany, OH

4:52 AM EST on February 21, 2017 (GMT -0500)
Ohio University

Weather History for KUNI - February, 2013

Change the Weather History Date:

Thursday, February 21, 2013

  Actual Average (KLHQ) Record (KLHQ)
Temperature  
Mean Temperature 26 °F -  
Max Temperature 32 °F 42 °F 71 °F (1997)
Min Temperature 19 °F 20 °F -7 °F (1968)
Degree Days  
Heating Degree Days 40    
Moisture  
Dew Point 15 °F    
Average Humidity 64    
Maximum Humidity 75    
Minimum Humidity 50    
Precipitation  
Precipitation 0.00 in - - ()
Sea Level Pressure  
Sea Level Pressure 30.27 in    
Wind  
Wind Speed 4 mph (NNE)    
Max Wind Speed 12 mph    
Max Gust Speed -    
Visibility 10 miles    
Events Snow    
Averages and records for this station are not official NWS values.
T = Trace of Precipitation, MM = Missing Value Source: NWS Daily Summary

Daily Weather History Graph

Daily Weather History Graph

Search for Another Location

Airport or City:

Trip Planner

Search our weather history database for the weather conditions in past years. The results will help you decide how hot, cold, wet, or windy it might be!

Date:

Astronomy

Feb. 21, 2013 Rise Set
Actual Time 7:12 AM EST 6:13 PM EST
Civil Twilight 6:45 AM EST 6:40 PM EST
Nautical Twilight 6:14 AM EST 7:11 PM EST
Astronomical Twilight 5:43 AM EST 7:42 PM EST
Moon 2:27 PM EST 4:15 AM EST
Length of Visible Light 11h 54m
Length of Day
11h 00m
Waxing Gibbous, 83% of the Moon is Illuminated
Feb 21
Waxing Gibbous
Feb 25
Full
Mar 4
Last Quarter
Mar 11
New
Mar 19
First Quarter

Hourly Weather History & Observations

Time (EST) Temp. Windchill Dew Point Humidity Pressure Visibility Wind Dir Wind Speed Gust Speed Precip Events Conditions
12:15 AM 19.0 °F - 11.3 °F 72% 30.26 in 10.0 mi Calm Calm - N/A   Overcast
12:35 AM 19.6 °F - 11.5 °F 71% 30.26 in 10.0 mi Calm Calm - N/A   Overcast
12:55 AM 20.1 °F 15.2 °F 10.9 °F 68% 30.26 in 10.0 mi SW 3.5 mph - N/A   Overcast
1:15 AM 20.1 °F 15.2 °F 10.9 °F 68% 30.27 in 10.0 mi SW 3.5 mph - N/A   Overcast
1:35 AM 20.1 °F 15.2 °F 10.9 °F 68% 30.26 in 10.0 mi WSW 3.5 mph - N/A   Overcast
1:55 AM 19.8 °F 14.7 °F 11.3 °F 70% 30.26 in 10.0 mi WSW 3.5 mph - N/A   Overcast
2:15 AM 19.8 °F 13.2 °F 11.7 °F 71% 30.27 in 10.0 mi WSW 4.6 mph - N/A   Overcast
2:35 AM 19.9 °F 13.4 °F 12.0 °F 71% 30.27 in 10.0 mi WSW 4.6 mph - N/A   Overcast
2:55 AM 20.3 °F 15.4 °F 12.2 °F 71% 30.26 in 10.0 mi West 3.5 mph - N/A   Overcast
3:15 AM 20.3 °F 13.8 °F 12.2 °F 71% 30.27 in 10.0 mi WSW 4.6 mph - N/A   Overcast
3:35 AM 20.3 °F 13.8 °F 12.2 °F 71% 30.27 in 10.0 mi WSW 4.6 mph - N/A   Overcast
3:55 AM 20.7 °F 14.2 °F 12.4 °F 70% 30.27 in 10.0 mi WSW 4.6 mph - N/A   Overcast
4:15 AM 20.7 °F 14.2 °F 12.7 °F 71% 30.27 in 10.0 mi WSW 4.6 mph - N/A   Overcast
4:35 AM 20.8 °F 16.0 °F 12.7 °F 71% 30.27 in 10.0 mi WSW 3.5 mph - N/A   Overcast
4:55 AM 21.0 °F 13.4 °F 13.1 °F 71% 30.27 in 10.0 mi WSW 5.8 mph - N/A   Overcast
5:15 AM 21.0 °F 16.2 °F 13.5 °F 73% 30.28 in 10.0 mi WSW 3.5 mph - N/A   Overcast
5:35 AM 21.2 °F 16.4 °F 13.6 °F 73% 30.29 in 10.0 mi West 3.5 mph - N/A   Overcast
5:55 AM 21.6 °F 16.8 °F 13.6 °F 72% 30.29 in 10.0 mi West 3.5 mph - N/A   Overcast
6:15 AM 21.7 °F 17.0 °F 14.0 °F 72% 30.29 in 10.0 mi West 3.5 mph - N/A   Overcast
6:35 AM 21.9 °F - 14.2 °F 72% 30.30 in 10.0 mi Calm Calm - N/A   Overcast
6:55 AM 22.1 °F - 15.1 °F 74% 30.30 in 10.0 mi Calm Calm - N/A   Overcast
7:15 AM 22.1 °F - 15.3 °F 75% 30.30 in 10.0 mi Calm Calm - N/A   Overcast
7:35 AM 22.5 °F - 15.4 °F 74% 30.31 in 10.0 mi Calm Calm - N/A   Overcast
7:55 AM 22.6 °F - 15.6 °F 74% 30.32 in 10.0 mi Calm Calm - N/A   Overcast
8:15 AM 22.6 °F 18.0 °F 15.3 °F 73% 30.33 in 10.0 mi NNW 3.5 mph - N/A   Overcast
8:35 AM 22.8 °F 15.5 °F 15.1 °F 72% 30.34 in 10.0 mi NW 5.8 mph - N/A Snow Light Snow
8:55 AM 22.8 °F 18.2 °F 14.9 °F 72% 30.34 in 10.0 mi NW 3.5 mph - N/A   Overcast
9:15 AM 22.8 °F 15.5 °F 14.9 °F 72% 30.33 in 10.0 mi NNE 5.8 mph - N/A   Overcast
9:35 AM 22.6 °F - 14.4 °F 71% 30.34 in 10.0 mi Calm Calm - N/A   Overcast
9:55 AM 22.8 °F 16.7 °F 14.2 °F 69% 30.35 in 10.0 mi North 4.6 mph - N/A   Overcast
10:15 AM 23.0 °F 18.4 °F 13.8 °F 68% 30.36 in 10.0 mi North 3.5 mph - N/A   Overcast
10:35 AM 23.2 °F 17.2 °F 13.6 °F 67% 30.34 in 10.0 mi North 4.6 mph - N/A   Overcast
10:55 AM 23.7 °F 17.8 °F 13.5 °F 65% 30.34 in 10.0 mi North 4.6 mph - N/A   Overcast
11:15 AM 23.9 °F 19.5 °F 12.9 °F 63% 30.34 in 10.0 mi East 3.5 mph - N/A   Overcast
11:35 AM 25.2 °F 20.9 °F 13.6 °F 62% 30.34 in 10.0 mi ENE 3.5 mph - N/A   Overcast
11:55 AM 26.6 °F - 13.5 °F 58% 30.34 in 10.0 mi Calm Calm - N/A   Overcast
12:15 PM 26.6 °F 22.6 °F 13.8 °F 59% 30.31 in 10.0 mi North 3.5 mph - N/A   Mostly Cloudy
12:35 PM 28.0 °F 21.7 °F 14.7 °F 57% 30.31 in 10.0 mi ENE 5.8 mph - N/A   Scattered Clouds
12:55 PM 29.3 °F 24.3 °F 14.4 °F 54% 30.30 in 10.0 mi East 4.6 mph - N/A   Scattered Clouds
1:15 PM 29.1 °F - 14.5 °F 55% 30.29 in 10.0 mi Calm Calm - N/A   Scattered Clouds
1:35 PM 30.2 °F 25.4 °F 15.1 °F 53% 30.27 in 10.0 mi NNE 4.6 mph - N/A   Clear
1:55 PM 30.9 °F 25.2 °F 15.6 °F 53% 30.27 in 10.0 mi North 5.8 mph - N/A   Clear
2:15 PM 31.1 °F 26.4 °F 15.6 °F 53% 30.24 in 10.0 mi ENE 4.6 mph - N/A   Clear
2:35 PM 32.0 °F 27.5 °F 16.0 °F 52% 30.23 in 10.0 mi NNE 4.6 mph - N/A   Clear
2:55 PM 32.0 °F 25.6 °F 16.2 °F 52% 30.23 in 10.0 mi North 6.9 mph - N/A   Clear
3:15 PM 32.0 °F 26.4 °F 15.8 °F 51% 30.25 in 10.0 mi North 5.8 mph - N/A   Clear
3:35 PM 32.2 °F - 15.4 °F 50% 30.24 in 10.0 mi Calm Calm - N/A   Clear
3:55 PM 32.4 °F 27.9 °F 16.2 °F 51% 30.25 in 10.0 mi NNE 4.6 mph - N/A   Clear
4:15 PM 32.4 °F 27.9 °F 15.8 °F 51% 30.24 in 10.0 mi North 4.6 mph - N/A   Clear
4:35 PM 32.2 °F 27.7 °F 15.8 °F 51% 30.25 in 10.0 mi East 4.6 mph - N/A   Clear
4:55 PM 32.0 °F 24.2 °F 16.7 °F 53% 30.24 in 10.0 mi ENE 9.2 mph - N/A   Clear
5:15 PM 32.0 °F 24.8 °F 16.7 °F 53% 30.24 in 10.0 mi ENE 8.1 mph - N/A   Clear
5:35 PM 31.1 °F 22.4 °F 16.5 °F 55% 30.23 in 10.0 mi ENE 10.4 mph - N/A   Clear
5:55 PM 30.7 °F 24.1 °F 16.5 °F 56% 30.26 in 10.0 mi ENE 6.9 mph - N/A   Clear
6:15 PM 30.2 °F 21.9 °F 16.5 °F 57% 30.25 in 10.0 mi ENE 9.2 mph - N/A   Clear
6:35 PM 29.3 °F 20.2 °F 17.2 °F 61% 30.24 in 10.0 mi ENE 10.4 mph - N/A   Clear
6:55 PM 29.1 °F 22.1 °F 16.9 °F 60% 30.25 in 10.0 mi ENE 6.9 mph - N/A   Clear
7:15 PM 29.1 °F 22.1 °F 16.7 °F 60% 30.25 in 10.0 mi ENE 6.9 mph - N/A   Clear
7:35 PM 28.9 °F 21.9 °F 17.1 °F 61% 30.24 in 10.0 mi ENE 6.9 mph - N/A   Clear
7:55 PM 28.6 °F 19.3 °F 17.6 °F 64% 30.22 in 10.0 mi ENE 10.4 mph - N/A   Clear
8:15 PM 28.4 °F 18.5 °F 17.6 °F 64% 30.22 in 10.0 mi ENE 11.5 mph - N/A   Clear
8:35 PM 28.2 °F 20.2 °F 17.6 °F 64% 30.22 in 10.0 mi ENE 8.1 mph - N/A   Clear
8:55 PM 28.0 °F 20.8 °F 17.6 °F 65% 30.22 in 10.0 mi ENE 6.9 mph - N/A   Clear
9:15 PM 27.9 °F 17.8 °F 17.6 °F 65% 30.21 in 10.0 mi ENE 11.5 mph - N/A   Clear
9:35 PM 27.9 °F 21.5 °F 17.6 °F 65% 30.21 in 10.0 mi East 5.8 mph - N/A   Clear
9:55 PM 27.9 °F 20.6 °F 17.4 °F 65% 30.20 in 10.0 mi ENE 6.9 mph - N/A   Clear
10:15 PM 27.9 °F 20.6 °F 17.6 °F 65% 30.20 in 10.0 mi ENE 6.9 mph - N/A   Clear
10:35 PM 28.0 °F 20.0 °F 17.6 °F 65% 30.20 in 10.0 mi NE 8.1 mph - N/A   Mostly Cloudy
10:55 PM 28.2 °F 24.4 °F 17.6 °F 64% 30.22 in 10.0 mi NE 3.5 mph - N/A   Overcast
11:15 PM 28.4 °F 24.6 °F 17.2 °F 63% 30.23 in 10.0 mi East 3.5 mph - N/A   Overcast
11:35 PM 28.2 °F 23.1 °F 18.0 °F 65% 30.22 in 10.0 mi ENE 4.6 mph - N/A   Overcast
11:55 PM 28.4 °F 22.2 °F 18.1 °F 65% 30.20 in 10.0 mi ENE 5.8 mph - N/A   Overcast